Weather reports worldwide

Advertisment
Safford, az, United States of America (2074852): temperature & dewpoint: 13.09.2019 11:00:00 - 19.09.2019 11:00:00 (MST)Safford, az, United States of America (2074852): wind speed & gusts: 13.09.2019 11:00:00 - 19.09.2019 11:00:00 (MST)Safford, az, United States of America (2074852): wind direction: 13.09.2019 11:00:00 - 19.09.2019 11:00:00 (MST)Safford, az, United States of America (2074852): reduced air pressure: 13.09.2019 11:00:00 - 19.09.2019 11:00:00 (MST)Safford, az, United States of America (2074852): visibility: 13.09.2019 11:00:00 - 19.09.2019 11:00:00 (MST)Safford, az, United States of America (2074852): precipitation: 13.09.2019 11:00:00 - 19.09.2019 11:00:00 (MST)
Date & Time tt [°C] td [°C] ff [km/h] ff [kn] fx [km/h] fx [kn] dd ppp [hPa] vv [km] rr [mm]
19.09.2019 11:00:00 - - - - - - - - - -
19.09.2019 10:00:00 28,9 8,3 5 3 - - - 1008,9 16 -
19.09.2019 09:00:00 26,7 8,9 0 0 - - N 1009,7 16 -
19.09.2019 08:00:00 24,4 9,4 0 0 - - N 1009,5 16 -
19.09.2019 07:00:00 20,6 10,6 0 0 - - N 1009,2 16 -
19.09.2019 06:00:00 19,4 8,9 11 6 - - NNE 1008,4 16 -
19.09.2019 05:00:00 18,9 10,0 9 5 - - NNW 1008,3 16 -
19.09.2019 04:00:00 20,6 10,0 8 4 - - ESE 1007,9 16 -
19.09.2019 03:00:00 20,0 11,1 11 6 - - NNW 1007,8 16 -
19.09.2019 02:00:00 22,2 9,4 0 0 - - N 1007,5 16 -
19.09.2019 01:00:00 22,8 10,6 8 4 - - S 1007,9 16 -
19.09.2019 00:00:00 22,8 10,0 0 0 - - N 1008,1 16 -
18.09.2019 23:00:00 25,6 10,0 0 0 - - N 1008,0 16 -
18.09.2019 22:00:00 27,2 8,3 5 3 - - N 1007,5 16 -
18.09.2019 21:00:00 25,0 8,3 11 6 - - NW 1008,0 16 -
18.09.2019 20:00:00 26,7 8,9 8 4 - - WNW 1008,2 16 -
18.09.2019 19:00:00 30,0 7,8 11 6 - - W 1007,7 16 -
18.09.2019 18:00:00 33,3 6,7 13 7 - - W 1007,5 16 -
18.09.2019 17:00:00 34,4 6,1 8 4 - - W 1007,4 16 -
18.09.2019 16:00:00 35,0 6,7 11 6 - - - 1007,7 16 -
18.09.2019 15:00:00 34,4 6,7 9 5 - - SW 1008,4 16 -
18.09.2019 14:00:00 34,4 6,1 11 6 - - - 1009,1 16 -
18.09.2019 13:00:00 33,9 6,7 9 5 - - - 1009,9 16 -
18.09.2019 12:00:00 31,7 9,4 5 3 - - - 1010,9 16 -
18.09.2019 11:00:00 30,6 10,6 11 6 - - SSE 1011,4 16 -
18.09.2019 10:00:00 30,0 9,4 15 8 - - SE 1011,8 16 -
18.09.2019 09:00:00 27,2 11,1 13 7 - - SSE 1011,9 16 -
18.09.2019 08:00:00 22,8 11,7 5 3 - - WNW 1012,0 16 -
18.09.2019 07:00:00 19,4 12,8 5 3 - - S 1011,9 16 -
18.09.2019 06:00:00 17,2 11,1 9 5 - - NE 1011,2 16 -
18.09.2019 05:00:00 17,8 11,7 5 3 - - S 1010,6 16 -
18.09.2019 04:00:00 18,3 11,7 0 0 - - N 1010,4 16 -
18.09.2019 03:00:00 20,0 11,1 5 3 - - S 1010,3 16 -
18.09.2019 02:00:00 19,4 12,2 0 0 - - N 1010,3 16 -
18.09.2019 01:00:00 20,0 12,2 9 5 - - E 1010,5 16 -
18.09.2019 00:00:00 21,7 12,8 8 4 - - SSE 1010,4 16 -
17.09.2019 23:00:00 23,3 10,0 5 3 - - NNW 1010,4 16 -
17.09.2019 22:00:00 24,4 10,0 11 6 - - NW 1010,1 16 -
17.09.2019 21:00:00 24,4 10,6 9 5 - - NW 1010,2 16 -
17.09.2019 20:00:00 27,2 10,0 9 5 - - N 1009,8 16 -
17.09.2019 19:00:00 29,4 9,4 13 7 - - NNW 1009,3 16 -
17.09.2019 18:00:00 32,2 9,4 18 10 - - NW 1009,2 16 -
17.09.2019 17:00:00 33,3 9,4 21 11 - - WNW 1008,8 16 -
17.09.2019 16:00:00 33,3 8,9 21 11 - - WNW 1009,0 16 -
17.09.2019 15:00:00 33,3 9,4 22 12 - - WNW 1009,4 16 -
17.09.2019 14:00:00 32,2 11,7 22 12 - - WNW 1010,2 16 -
17.09.2019 13:00:00 30,6 11,7 11 6 - - W 1011,5 16 -
17.09.2019 12:00:00 28,3 12,2 0 0 - - N 1012,7 16 -
17.09.2019 11:00:00 26,7 12,2 5 3 - - - 1013,7 16 -
17.09.2019 10:00:00 25,0 15,0 5 3 - - - 1014,4 16 -
17.09.2019 09:00:00 22,8 15,0 0 0 - - N 1014,7 16 -
17.09.2019 08:00:00 20,6 15,6 0 0 - - N 1014,6 16 -
17.09.2019 07:00:00 17,8 15,6 0 0 - - N 1014,6 16 -
17.09.2019 06:00:00 15,6 14,4 8 4 - - NW 1013,4 16 -
17.09.2019 05:00:00 16,1 14,4 5 3 - - ESE 1012,5 16 -
17.09.2019 04:00:00 17,8 15,0 8 4 - - WSW 1012,5 16 -
17.09.2019 03:00:00 18,3 15,0 9 5 - - NNE 1011,9 16 -
17.09.2019 02:00:00 20,0 15,0 9 5 - - SW 1011,8 16 -
17.09.2019 01:00:00 19,4 16,1 0 0 - - N 1012,5 16 -
17.09.2019 00:00:00 19,4 16,1 5 3 - - SE 1013,0 16 -
16.09.2019 23:00:00 20,6 15,6 8 4 - - ESE 1012,7 16 0,0
16.09.2019 22:00:00 20,0 16,7 9 5 - - E 1012,3 16 0,0
16.09.2019 21:00:00 20,0 15,6 24 13 50 27 WNW 1014,0 16 0,3
16.09.2019 20:00:00 21,1 15,6 35 19 50 27 WNW 1013,7 16 0,0
16.09.2019 19:00:00 22,8 13,9 39 21 65 35 NW 1012,7 16 -
16.09.2019 18:00:00 29,4 12,8 11 6 - - W 1009,5 16 -
16.09.2019 17:00:00 30,0 12,8 8 4 - - WSW 1008,8 16 -
16.09.2019 16:00:00 30,0 12,2 9 5 - - SW 1009,0 16 -
16.09.2019 15:00:00 30,6 13,3 11 6 - - W 1009,5 16 -
16.09.2019 14:00:00 30,0 14,4 5 3 - - S 1010,8 16 -
16.09.2019 13:00:00 28,9 16,1 11 6 - - SSW 1012,1 16 -
16.09.2019 12:00:00 27,8 16,7 - - - - - 1013,2 16 -
16.09.2019 11:00:00 26,1 16,7 8 4 - - SE 1014,3 16 -
16.09.2019 10:00:00 25,0 16,7 16 9 - - SSE 1015,1 16 -
16.09.2019 09:00:00 23,3 17,2 16 9 - - SSE 1015,2 16 -
16.09.2019 08:00:00 20,6 17,8 15 8 - - SE 1015,1 16 -
16.09.2019 07:00:00 19,4 17,2 5 3 - - - 1014,6 16 -
16.09.2019 06:00:00 18,3 17,2 13 7 - - S 1014,1 16 -
16.09.2019 05:00:00 18,9 17,2 9 5 - - S 1013,6 16 -
16.09.2019 04:00:00 18,9 17,8 9 5 - - ESE 1013,6 16 -
16.09.2019 03:00:00 19,4 17,2 9 5 - - SE 1013,5 16 -
16.09.2019 02:00:00 20,0 17,8 9 5 - - SE 1014,0 16 -
16.09.2019 01:00:00 20,6 18,3 15 8 - - SE 1014,2 16 -
16.09.2019 00:00:00 21,1 18,3 13 7 - - SSE 1014,2 16 -
15.09.2019 23:00:00 21,7 18,9 13 7 - - ESE 1013,9 16 -
15.09.2019 22:00:00 22,2 19,4 9 5 - - ESE 1013,7 16 -
15.09.2019 21:00:00 21,7 19,4 9 5 - - E 1013,2 16 -
15.09.2019 20:00:00 22,8 19,4 8 4 - - SE 1012,3 16 -
15.09.2019 19:00:00 24,4 17,8 0 0 - - N 1011,3 16 -
15.09.2019 18:00:00 25,6 17,2 8 4 - - SSW 1011,1 16 -
15.09.2019 17:00:00 25,0 17,8 9 5 - - WNW 1011,0 16 -
15.09.2019 16:00:00 25,6 17,8 8 4 - - WSW 1010,8 16 -
15.09.2019 15:00:00 26,7 18,3 13 7 - - NNW 1011,2 16 -
15.09.2019 14:00:00 26,7 17,8 11 6 - - WNW 1012,2 16 -
15.09.2019 13:00:00 25,0 18,3 5 3 - - - 1013,6 16 -
15.09.2019 12:00:00 23,9 18,3 8 4 - - NW 1014,8 16 -
15.09.2019 11:00:00 22,2 18,3 0 0 - - N 1015,5 16 -
15.09.2019 10:00:00 20,0 17,2 0 0 - - N 1016,1 16 -
15.09.2019 09:00:00 20,0 17,8 11 6 - - WNW 1015,9 16 -
15.09.2019 08:00:00 18,9 17,8 5 3 - - NW 1015,6 16 0,0
15.09.2019 07:00:00 18,9 17,8 5 3 - - NW 1015,3 10 0,0
15.09.2019 06:00:00 18,9 17,8 0 0 - - N 1014,9 16 -
15.09.2019 05:00:00 18,3 17,8 0 0 - - N 1014,9 16 0,0
15.09.2019 04:00:00 18,3 17,2 8 4 - - SSW 1014,9 16 -
15.09.2019 03:00:00 17,8 17,8 15 8 - - S 1015,2 16 1,0
15.09.2019 02:00:00 17,8 17,2 11 6 - - SE 1016,2 6 0,5
15.09.2019 01:00:00 20,0 16,7 16 9 - - ESE 1016,0 16 -
15.09.2019 00:00:00 20,6 15,6 22 12 - - ENE 1015,4 16 -
14.09.2019 23:00:00 19,4 17,8 13 7 - - S 1015,7 16 -
14.09.2019 22:00:00 20,0 18,3 13 7 - - ESE 1016,0 16 0,0
14.09.2019 21:00:00 19,4 18,3 0 0 - - N 1016,3 16 0,0
14.09.2019 20:00:00 19,4 17,8 5 3 - - NNW 1016,4 16 0,3
14.09.2019 19:00:00 19,4 18,3 5 3 - - NNW 1017,1 16 0,8
14.09.2019 18:00:00 20,0 18,3 8 4 - - NNE 1017,1 15 0,5
14.09.2019 17:00:00 20,6 17,8 9 5 - - SW 1016,9 16 0,3
14.09.2019 16:00:00 21,7 16,7 8 4 - - W 1016,8 16 0,0
14.09.2019 15:00:00 21,7 16,7 15 8 - - S 1016,9 16 -
14.09.2019 14:00:00 22,8 16,7 15 8 - - SSE 1017,1 16 -
14.09.2019 13:00:00 23,3 17,2 29 16 55 30 SSE 1017,9 16 -
14.09.2019 12:00:00 26,7 13,9 34 18 - - S 1016,7 16 -
14.09.2019 11:00:00 27,2 13,3 15 8 - - S 1016,3 16 -
14.09.2019 10:00:00 26,7 14,4 11 6 - - SSE 1016,4 16 -
14.09.2019 09:00:00 25,0 14,4 9 5 - - S 1016,5 16 -
14.09.2019 08:00:00 24,4 15,0 11 6 - - SSE 1016,3 16 -
14.09.2019 07:00:00 21,7 16,7 15 8 - - S 1016,2 16 -
14.09.2019 06:00:00 21,7 15,6 11 6 - - ESE 1015,5 16 -
14.09.2019 05:00:00 22,2 15,0 9 5 - - E 1015,2 16 -
14.09.2019 04:00:00 22,2 15,6 8 4 - - E 1015,2 16 -
14.09.2019 03:00:00 22,8 15,0 11 6 - - SE 1014,6 16 -
14.09.2019 02:00:00 22,8 16,1 11 6 - - SE 1014,1 16 -
14.09.2019 01:00:00 22,2 17,2 9 5 - - ESE 1013,8 16 -
14.09.2019 00:00:00 22,8 15,6 11 6 - - SSE 1013,3 16 -
13.09.2019 23:00:00 23,3 15,0 11 6 - - ENE 1013,5 16 -
13.09.2019 22:00:00 23,9 15,6 11 6 - - E 1014,3 16 -
13.09.2019 21:00:00 26,1 15,6 16 9 - - S 1014,1 16 -
13.09.2019 20:00:00 27,8 13,3 11 6 - - ESE 1012,9 16 -
13.09.2019 19:00:00 27,2 13,9 15 8 - - E 1011,4 16 -
13.09.2019 18:00:00 28,3 15,0 11 6 - - ESE 1011,9 16 -
13.09.2019 17:00:00 27,8 15,6 11 6 - - E 1012,6 16 -
13.09.2019 16:00:00 26,7 15,6 11 6 63 34 NNW 1011,5 16 0,0
13.09.2019 15:00:00 31,1 15,0 39 21 61 33 SE 1011,4 16 0,0
13.09.2019 14:00:00 - - - - - - - - - -
13.09.2019 13:00:00 - - - - - - - - - -
13.09.2019 12:00:00 - - - - - - - - - -
13.09.2019 11:00:00 - - - - - - - - - -

tt = temperature
td = dewpoint
ff = wind speed
fx = gusts
dd = wind direction
ppp = reduced air pressure
vv = visibility
rr = precipitation

Next stations